ATLAS 5 CENTAUR DEB, 45475

Orbit data source: Space-Track

ATLAS 5 CENTAUR DEB, 45475 is space debris in HEO originally from a launch on Wed, 17 Oct 2018 UTC launched from the Air Force Eastern Test Range (AFETR). Debris objects in space refer to the collection of defunct objects orbiting the Earth. Examples of debris include non-operational satellites, rocket bodies, and fragments generated from explosions, collisions, or faulty payload assembly.

Loading next visibility...
Identifier
45475, 2018-079BX
Orbit
HEO
Country
Flag of USUS
Related business
Flag of USUnited Launch Alliance/Lockheed Martin (US)
Manufacturer
ULA Decatur
Mission
Spacecraft
Bus & Motor
Unknown
Mass
Unknown
Launch date (UTC)
2018-10-17 (8 years ago)
Launch vehicle
Unknown
Launch site
Air Force Eastern Test Range (AFETR)
Object type
Payload
Rocket body
Debris
Shape & HBR
Unknown shape, 1.1 m
Radar Cross Section
Medium (>0.1 m² and <1 m²)

Expand to show TLE details & history
Last TLE update: 1 day ago

TLE from 1 day ago
0 ATLAS 5 CENTAUR DEB
1 45475U 18079BX  26150.30127494 -.00000098  00000-0  00000-0 0  9992
2 45475  13.3299  27.6844 4736386 333.1726   8.7649  1.84725666 44846
Epoch: 2026-05-30T07:13Z
TLE epoch observation values (Epoch: 2026-05-30T07:13:50.154Z)
Latitude
0.0001°
Longitude
31.3614°
Altitude
8,937.909 km
Speed
6.152 km/s
True Right ascension
01h 50m 33s
True Declination
0° 00' 00"
Sunlit
Object was in daylight at epoch
Visualization orbit readout
Latitude
Unknown
Longitude
Unknown
Altitude
Unknown
Speed
Unknown
Apparent Right ascension
Unknown
Apparent Declination
Unknown
Sunlit
N/A
Visualization observer readout
Local Sidereal Time
23:38:12
Azimuth
Unknown
Elevation
Unknown
Doppler factor
Unknown
Orbital elements
Apogee altitude
34,971.751 km
Perigee altitude
8,391.417 km
Semi-major axis
28,059.721 km
Eccentricity
0.47364
Inclination
13.3299°
RAAN
27.6844°
Arg. of periapsis
333.1726°
True anomaly
27.19192°
Mean anomaly
8.7649°
Eccentric anomaly
16.44937°
Mean motion
0.46176 °/min
Orbital period
779.62 mins
BSTAR
0
Loading maneuver chart data...
Computing Atmospheric mass density...

Documentation

Showing up to 5 results
|